This is the latest recevied weather packets stored in our database for station/object KY4LEX. If no packets are shown the sender has not sent any weather packets the latest 10 day(s).
| Time | Temp. | Humidity | Pressure | Rain* | Wind** | Luminosity | Snow |
|---|---|---|---|---|---|---|---|
| 1777833935 | 16.67° C | 31% | 1024 hPa | 0 mm | - | 671 W/m² | - |
| 1777833631 | 16.11° C | 29% | 1024.2 hPa | 0 mm | - | 678 W/m² | - |
| 1777833328 | 16.11° C | 32% | 1024 hPa | 0 mm | - | 684 W/m² | - |
| 1777833025 | 16.67° C | 30% | 1024 hPa | 0 mm | - | 690 W/m² | - |
| 1777832723 | 16.67° C | 29% | 1024.2 hPa | 0 mm | - | 694 W/m² | - |
| 1777832421 | 16.67° C | 32% | 1024.3 hPa | 0 mm | - | 674 W/m² | - |
| 1777832118 | 15.56° C | 34% | 1024.3 hPa | 0 mm | - | 700 W/m² | - |
| 1777831814 | 16.67° C | 33% | 1024.4 hPa | 0 mm | - | 705 W/m² | - |
| 1777831512 | 16.67° C | 32% | 1024.4 hPa | 0 mm | - | 709 W/m² | - |
| 1777831208 | 16.67° C | 31% | 1024.5 hPa | 0 mm | - | 712 W/m² | - |
| 1777830906 | 16.11° C | 32% | 1024.5 hPa | 0 mm | - | 716 W/m² | - |
| 1777830602 | 16.67° C | 30% | 1024.6 hPa | 0 mm | - | 715 W/m² | - |
| 1777830301 | 15.56° C | 33% | 1024.6 hPa | 0 mm | - | 718 W/m² | - |
| 1777829996 | 15.56° C | 34% | 1024.8 hPa | 0 mm | - | 720 W/m² | - |
| 1777829691 | 16.11° C | 33% | 1024.9 hPa | 0 mm | - | 721 W/m² | - |
| 1777829388 | 16.67° C | 36% | 1025.2 hPa | 0 mm | - | 719 W/m² | - |
| 1777829086 | 16.11° C | 31% | 1025.3 hPa | 0 mm | - | 718 W/m² | - |
| 1777828782 | 15.56° C | 32% | 1025.4 hPa | 0 mm | - | 719 W/m² | - |
| 1777828479 | 15.56° C | 31% | 1025.5 hPa | 0 mm | - | 718 W/m² | - |
| 1777828177 | 16.11° C | 33% | 1025.3 hPa | 0 mm | - | 716 W/m² | - |
| 1777827872 | 16.67° C | 29% | 1025.6 hPa | 0 mm | - | 714 W/m² | - |
| 1777827570 | 15.56° C | 32% | 1025.4 hPa | 0 mm | - | 712 W/m² | - |
| 1777827268 | 15.56° C | 32% | 1025.8 hPa | 0 mm | - | 710 W/m² | - |
| 1777826963 | 15° C | 33% | 1025.6 hPa | 0 mm | - | 709 W/m² | - |
| 1777826661 | 14.44° C | 31% | 1025.8 hPa | 0 mm | - | 704 W/m² | - |
* Rain latest hour (hover to see other rain measurements)
** Current wind speed in m/s (hover to see current wind gust speed)